Regional Weather Roundup
Issued by NWS Charleston, SC

Current Version | Previous Version | Graphics & Text | Print | Product List | Glossary On
Versions: 1 2 3 4 5 6 7 8 9 10 11 12 13 14 15 16 17 18 19 20 21 22 23 24 25 26 27 28 29 30 31 32 33 34 35 36 37 38 39 40 41 42 43 44 45 46 47 48 49 50
000
ASUS42 KCHS 280827
RWRCHS

REGIONAL WEATHER ROUNDUP
NATIONAL WEATHER SERVICE CHARLESTON SC
400 AM EDT FRI JUL 28 2017

NOTE: "FAIR" INDICATES FEW OR NO CLOUDS BELOW 12,000 FEET WITH NO
SIGNIFICANT WEATHER AND/OR OBSTRUCTIONS TO VISIBILITY.

NOT ALL STATIONS ARE QUALITY CONTROLLED. USE DATA WITH CAUTION...
ESPECIALLY DEWPOINT OBSERVATIONS.

SCZ027-030-031-034>040-042>050-280900-
...SOUTHEAST SOUTH CAROLINA...

CITY           SKY/WX    TMP DP  RH WIND       PRES   REMARKS
N CHARLESTON   PTCLDY    77  75  93 CALM      29.90S
WATERFRONT PRK   N/A     81  77  88 VRB3      29.88F
JOHNS ISLAND   PTSUNNY   79  77  94 CALM      29.89F
PINOPOLIS        N/A     77  75  94 CALM      29.83F
MONCKS CORNER  FAIR      72  72 100 CALM      29.90S
SUMMERVILLE    FAIR      73  72  94 CALM      29.91S
BEAUFORT MCAS  CLEAR     77  76  96 NW3       29.90S
BEAUFORT ARPT  FAIR      77  73  88 CALM      29.89F
HILTON HEAD IS PTCLDY    77  77 100 CALM      29.90S
WALTERBORO     NOT AVBL
ALLENDALE      NOT AVBL

...SOUTHERN MIDLANDS AND PEE DEE...

CITY           SKY/WX    TMP DP  RH WIND       PRES   REMARKS
GEORGETOWN     FAIR      73  72  94 CALM      29.90F
KINGSTREE      FAIR      72  70  94 CALM      29.90S FOG
ORANGEBURG     PTCLDY    74  72  93 CALM      29.90F
BARNWELL       FAIR      75  75 100 CALM      29.90F
AIKEN          FAIR      73  72  94 SW5       29.94F
MANNING        FAIR      75  73  94 SW3       29.90S
COLUMBIA       MOCLDY    77  72  84 W3        29.89F
SUMTER         CLOUDY    75  73  94 SW6       29.87F
FLORENCE       CLOUDY    74  74 100 S3        29.90F
MYRTLE BEACH   NOT AVBL
N MYRTLE BEACH PTCLDY    78  76  93 SW7       29.89F

$$

GAZ063-065-086>088-099>101-113>116-118-119-134>141-150-280900-
...SOUTHEAST GEORGIA...

CITY           SKY/WX    TMP DP  RH WIND       PRES   REMARKS
SAVANNAH ARPT  CLEAR     76  74  93 CALM      29.90F
HUNTER AAF     CLEAR     75  74  97 W6        29.87F
FORT STEWART   CLOUDY    75  73  94 SW3       29.87F FOG
STATESBORO     MOCLDY    74  74 100 CALM      29.90F
SYLVANIA       FOG       73  73 100 CALM      29.91S VSB 1/2
CLAXTON        FAIR      73  73  98 CALM      29.90S FOG

...CSRA...CENTRAL AND FAR SOUTHEAST GEORGIA...

CITY           SKY/WX    TMP DP  RH WIND       PRES   REMARKS
THOMSON        PTCLDY    74  73  97 SW5       29.95F FOG
AUGUSTA-BUSH   PTCLDY    77  74  90 CALM      29.90F
AUGUSTA-DANIEL PTCLDY    78  72  81 S3        29.92F
SWAINSBORO     FAIR      73  73 100 CALM      29.92F
VIDALIA        CLOUDY    77  73  88 CALM      29.91S
EASTMAN        FAIR      76  76 100 CALM      29.94S FOG
HAZLEHURST     FAIR      77  77 100 CALM      29.90S
ALMA           MOCLDY    77  75  93 CALM      29.90F
WAYCROSS       MOCLDY    79  79 100 SW3       29.90F
JESUP          NOT AVBL
BAXLEY         FAIR      77  77 100 CALM      29.90S FOG
BRUNSWICK      CLOUDY    77  77 100 W7        29.90S
SAINT SIMONS   CLOUDY    78  76  93 SW8       29.89F

$$

SCZ027-028-034-036>038-045-046-048>050-GAZ119-141-280900-
...LAKE AND SUPPLEMENTAL COASTAL OBSERVATIONS...

STATION/POSITION TIME  TEMP    WIND        PRES    WAVE   SWELL
                       AIR SEA DIR/SP/G            HT/PER HT/PER/DIR
                 (UTC) (F)     (DEG/KT/KT) (MB)    (FT/S) (FT/S/D)
WINYAH BAY       0745   79     260/  1     1012.0F
LAKE MURRAY      0730   79     200/  9/ 11 1011.5F
ACE BASIN NERRS  0745   76        CALM     1012.0F
FORT PULASKI     0800   79 84  280/  3/  4 1012.4
SAPELO ISLAND    0800   78     250/  7     1012.0

$$

ANZ835-935-AMZ111-154-330-350-352-354-370-450-454-472-280900-
...C-MAN AND BUOY OBSERVATIONS...

STATION/POSITION TIME  TEMP    WIND        PRES    WAVE   SWELL
                       AIR SEA DIR/SP/G            HT/PER HT/PER/DIR
                 (UTC) (F)     (DEG/KT/KT) (MB)    (FT/S) (FT/S/D)
BUOY 41004       0810   80 81  200/ 16/ 19 1011.9
BUOY 41008       0750   80 81  250/  8/ 10 1011.7F   2/ 8   2/ 90/ 8
FOLLY BEACH CMAN 0800   81     200/  9/  9 1012.8F
CAPERS NEARSHORE 0808   80 84  210/ 10/ 16 1012.0F
FRIPP NEARSHORE  0808   81 84  210/  8/ 10 1011.8S


STATION/POSITION TIME  TEMP    WIND        PRES    WAVE   SWELL
                       AIR SEA DIR/SP/G            HT/PER HT/PER/DIR
                 (UTC) (F)     (DEG/KT/KT) (MB)    (FT/S) (FT/S/D)
5E ST. MARYS GA  0800      79                N/A     2/ 4
FRYING PAN BUOY  0810   82 82  200/ 12/ 16 1012.5
BUOY 41025       0750   81 83  200/ 19/ 21 1012.2F   3/ 4   2/ 50/ 8
CAPE LOOKOUT NC  0800   80     230/  8/ 11 1012.4S
BUOY 41002       0750   82 83  240/ 10/ 14 1014.2F   3/ 7   2/ 80/ 7
BUOY 41010       0810   84 85  170/ 12/ 16 1013.5
ST AUGUSTINE FL  0800   77 76  230/  4/  5 1013.0F


$$




USA.gov is the U.S. government's official web portal to all federal, state and local government web resources and services.